Location: Lac Lasalle
(46.0398°N, 74.1576°W)
Time: 21:17:56
(UTC-05:00)

SEEDS - Pass Details

Date: 22 December 2019
Orbit: 586 x 603 km, 97.5° (Epoch: 23 January)

Event Time Altitude Azimuth Distance (km) Brightness Sun altitude
Rises 18:07:24 0° 211° (SSW) 2,811 ? -18.7°
Reaches altitude 10° 18:10:26 10° 236° (SW) 1,920 ? -19.2°
Maximum altitude 18:12:47 15° 270° (W) 1,645 ? -19.6°
Drops below altitude 10° 18:15:08 10° 305° (NW) 1,935 ? -20.0°
Sets 18:18:14 0° 330° (NNW) 2,848 ? -20.5°
